Temperature
21 21 22 22 16 12 9 9 10 8 7 7 7 7 6 5 6 4 4 5 7 8 8 9 9 9 9 9 9 9 9 9 9 10 10 10 11 11 12 12 12 12 12 12 13 13 13 13 14
21 21 22 19 13 11 10 9 8 8 8 7 7 7 7 6 5 5 5 6 7 8 8 9 9 9 9 9 9 9 9 9 9 9 9 9 9 10 10 11 11 11 11 11 12 12 13 13 13
21 22 19 11 9 9 9 8 7 7 7 7 7 6 6 5 5 5 5 6 7 8 8 9 9 9 9 9 8 8 8 7 7 7 7 7 7 8 8 9 9 10 10 10 10 11 12 12 12
22 20 13 10 7 7 8 8 8 8 8 8 7 5 4 4 4 5 5 6 7 8 8 9 9 9 8 7 7 7 6 6 6 5 5 5 6 6 6 7 7 7 7 8 9 9 10 11 12
22 17 10 8 7 8 8 8 9 8 7 7 6 4 3 3 4 5 6 7 7 8 8 8 8 8 7 6 6 6 5 5 5 5 4 5 5 5 5 5 6 6 6 6 7 7 8 9 10
21 13 10 8 8 8 8 8 8 7 7 6 5 3 3 3 4 5 6 7 7 8 8 8 7 7 6 6 5 5 4 4 4 4 4 5 5 4 4 4 4 4 5 5 5 6 6 7 8
16 10 8 8 8 8 8 8 7 6 6 6 6 3 2 3 4 5 6 7 7 7 7 7 6 6 5 5 5 4 4 3 4 3 3 4 4 4 4 4 4 4 4 4 4 4 5 6 7
17 10 9 9 9 8 8 7 7 7 6 6 6 4 3 4 5 5 6 6 7 7 6 6 5 5 4 4 4 3 3 3 3 3 3 3 3 3 3 3 3 3 3 3 3 4 4 4 5
18 11 10 10 9 7 8 7 6 6 6 5 5 5 4 5 5 5 6 7 7 6 6 5 4 4 3 3 3 3 3 3 3 3 3 3 3 3 3 2 2 2 2 3 3 3 3 4 4
15 9 10 9 9 7 7 6 5 5 5 4 4 5 5 5 5 6 6 7 6 5 4 4 4 3 3 3 3 3 2 2 2 2 2 2 2 2 2 2 2 2 2 2 2 2 2 3 3
10 8 8 8 8 8 7 6 6 6 4 4 5 5 5 5 5 6 6 5 4 3 3 3 3 3 2 2 2 2 2 2 1 1 1 1 1 1 1 1 1 1 1 1 1 1 1 2 2
8 8 9 8 9 8 7 6 6 6 6 7 6 6 5 5 5 5 5 3 3 3 3 3 2 2 2 2 1 1 1 1 1 0 0 -0 0 -0 -0 -1 -1 -1 -1 -0 -0 -0 0 1 1
8 8 7 8 9 8 7 6 6 6 6 6 5 5 5 5 5 5 4 3 2 2 2 2 2 2 1 1 1 1 0 0 -0 -1 -1 -1 -1 -2 -2 -2 -2 -2 -2 -2 -2 -1 -1 -1 -0
7 7 8 8 8 7 6 6 6 5 6 5 5 5 5 5 5 4 3 2 2 2 2 2 2 1 1 1 0 -0 -1 -1 -1 -2 -2 -2 -3 -3 -3 -4 -4 -4 -4 -4 -4 -3 -3 -2 -2
10 8 8 8 8 7 7 6 5 6 5 5 5 5 5 5 4 3 2 2 1 1 1 1 1 1 0 0 -0 -1 -1 -2 -2 -3 -3 -3 -4 -4 -5 -5 -5 -5 -5 -5 -5 -5 -4 -4 -3
10 9 10 8 7 7 7 8 6 6 5 5 5 4 4 4 4 3 2 2 1 1 1 1 0 0 0 -0 -1 -1 -2 -3 -3 -4 -4 -5 -5 -6 -6 -6 -7 -7 -7 -6 -6 -6 -5 -5 -4
10 11 11 9 7 7 6 7 6 5 5 5 5 4 4 4 3 3 2 2 1 0 0 -0 0 0 -0 -1 -2 -2 -3 -3 -4 -5 -5 -6 -6 -7 -7 -7 -8 -8 -8 -8 -8 -7 -7 -7 -6
13 12 12 10 8 6 6 5 5 5 5 5 5 4 4 4 3 3 2 1 0 -0 -1 -0 -0 -1 -1 -2 -2 -3 -3 -4 -5 -5 -6 -7 -7 -8 -8 -8 -9 -9 -9 -9 -9 -9 -8 -8 -8
13 12 12 11 8 7 6 5 5 5 4 4 4 4 4 4 3 3 2 1 -0 -1 -1 -1 -1 -1 -2 -2 -3 -3 -4 -5 -6 -6 -7 -8 -8 -8 -9 -9 -10 -10 -10 -10 -10 -10 -10 -9 -9
12 12 12 10 9 8 6 5 5 4 4 4 5 5 4 4 3 3 1 0 -1 -1 -1 -1 -1 -2 -3 -4 -5 -5 -5 -5 -6 -7 -8 -8 -8 -9 -10 -10 -11 -11 -11 -11 -11 -11 -11 -11 -11
13 13 12 11 9 8 7 7 5 4 4 4 5 5 5 4 3 2 1 -0 -1 -1 -1 -1 -2 -3 -3 -4 -5 -5 -5 -6 -7 -7 -8 -9 -9 -10 -10 -11 -11 -12 -12 -13 -13 -12 -12 -12 -12
13 12 12 10 9 7 8 8 8 4 3 3 4 4 4 4 3 1 0 -1 -1 -1 -1 -2 -3 -3 -4 -5 -5 -6 -7 -7 -8 -9 -9 -9 -10 -10 -11 -12 -12 -13 -13 -13 -13 -13 -13 -13 -13
12 12 11 9 9 8 7 7 7 3 3 3 3 4 4 3 2 1 0 -1 -1 -1 -2 -2 -3 -4 -4 -5 -6 -7 -8 -9 -9 -9 -10 -10 -11 -11 -12 -12 -13 -13 -13 -13 -14 -14 -13 -14 -14
11 10 9 7 7 9 9 8 8 4 4 3 3 4 4 3 2 1 0 -1 -1 -2 -2 -2 -3 -4 -5 -5 -6 -8 -8 -9 -9 -9 -10 -11 -12 -12 -12 -13 -13 -13 -13 -14 -14 -14 -14 -14 -13
11 11 11 11 10 11 8 8 8 7 4 4 4 4 4 3 2 1 0 -1 -2 -2 -2 -3 -3 -4 -5 -6 -7 -8 -8 -9 -10 -10 -11 -12 -12 -12 -12 -13 -13 -13 -13 -13 -14 -14 -14 -13 -13
11 12 12 12 10 9 8 8 8 5 4 4 4 4 3 2 1 0 -0 -1 -2 -2 -2 -3 -4 -5 -5 -6 -7 -8 -8 -9 -10 -11 -12 -12 -13 -13 -13 -13 -13 -13 -13 -13 -13 -13 -13 -13 -13
11 9 9 8 8 8 7 7 7 4 3 3 3 3 3 2 1 0 -1 -2 -2 -2 -3 -4 -5 -5 -6 -7 -7 -8 -9 -9 -10 -11 -12 -12 -13 -13 -12 -12 -12 -13 -13 -13 -13 -13 -13 -13 -12
10 7 7 8 10 9 8 8 8 8 4 2 1 1 2 1 0 -0 -1 -2 -2 -3 -4 -5 -5 -6 -6 -7 -7 -8 -9 -10 -11 -12 -12 -12 -12 -12 -12 -12 -12 -12 -12 -12 -12 -12 -12 -12 -11
9 9 7 6 7 8 7 10 8 7 5 3 2 2 3 1 0 -1 -1 -2 -2 -3 -4 -5 -5 -6 -6 -7 -7 -8 -9 -10 -11 -12 -12 -12 -12 -12 -12 -12 -12 -11 -11 -11 -11 -11 -11 -11 -11
10 9 7 9 8 6 6 9 8 6 5 4 3 3 2 1 -0 -1 -1 -2 -3 -4 -4 -5 -5 -6 -6 -7 -7 -8 -9 -10 -11 -12 -12 -12 -12 -12 -11 -11 -11 -11 -11 -11 -10 -10 -10 -10 -10
Wind_Speed
6 5 4 5 8 10 6 4 3 5 5 2 3 7 9 7 7 7 1 13 18 19 22 24 27 27 28 28 28 29 29 29 29 29 29 30 31 31 31 31 30 30 30 29 29 29 29 29 29
5 6 8 7 7 7 5 5 5 4 6 5 4 6 7 7 5 6 5 12 17 19 22 24 27 27 27 28 28 28 28 28 28 28 28 29 30 30 31 31 31 30 30 29 29 29 29 29 29
7 9 7 7 7 5 5 4 5 5 5 4 5 6 5 5 4 4 6 11 15 19 23 24 27 27 27 27 28 28 28 27 27 28 28 29 30 30 30 31 31 30 30 29 29 29 29 29 29
6 7 8 10 10 5 3 1 4 7 5 6 5 6 5 6 4 5 7 9 12 18 23 25 27 27 26 26 27 27 28 27 27 27 27 28 29 29 29 30 30 30 30 30 30 29 29 29 29
6 7 9 8 6 4 4 4 2 4 4 5 5 6 4 4 6 6 5 9 12 17 22 24 26 26 26 26 27 27 27 27 26 27 27 28 29 29 29 29 29 29 29 29 30 30 30 29 28
6 7 8 6 5 4 2 3 4 6 5 5 6 6 3 2 3 3 5 9 14 16 20 24 26 26 25 25 26 27 26 26 26 27 28 28 29 30 29 29 29 28 28 28 29 30 30 29 28
6 7 7 8 7 5 4 3 4 5 5 3 5 6 4 2 2 3 4 8 12 17 20 23 24 24 24 23 25 26 25 25 25 26 27 28 30 30 30 30 29 28 28 28 29 29 29 29 28
6 7 7 6 7 5 5 4 4 4 4 3 4 8 6 5 4 2 3 6 9 14 18 21 23 23 24 22 23 25 24 24 23 24 26 26 27 28 28 29 28 28 28 29 29 29 29 29 28
5 7 5 5 8 7 6 5 3 4 6 4 3 4 6 8 5 1 1 4 6 11 15 20 22 22 22 19 19 22 21 21 21 22 24 23 22 23 24 26 27 28 28 28 28 29 28 28 26
7 6 5 1 7 8 6 6 8 5 5 4 4 5 6 6 3 2 5 9 11 11 9 15 18 19 20 18 17 20 18 19 20 20 22 21 20 21 22 24 25 26 27 27 27 28 25 23 21
8 7 5 5 6 8 6 6 5 9 4 7 8 9 7 5 4 4 6 7 7 6 7 11 16 18 19 18 16 17 17 18 18 19 21 21 19 19 20 19 19 21 23 22 24 23 21 20 20
8 7 6 5 5 6 6 6 5 3 4 8 10 10 7 7 5 5 6 6 5 6 7 8 14 16 17 18 16 16 17 16 17 18 20 19 17 18 19 17 18 18 19 20 20 19 21 21 21
7 5 5 8 11 8 7 6 5 3 5 9 8 7 8 7 5 5 5 4 4 6 7 8 11 15 16 16 16 16 17 16 17 17 19 19 17 16 17 17 17 18 19 19 19 19 19 19 20
7 8 7 7 7 4 6 4 5 4 6 8 8 7 7 7 6 4 3 2 3 5 7 9 8 14 15 15 16 15 17 17 17 17 19 19 18 17 17 16 16 17 19 19 19 19 17 16 17
6 8 6 4 4 3 6 2 6 8 8 8 8 7 6 6 6 5 3 1 2 4 6 8 9 14 15 15 15 16 17 17 16 17 18 19 19 19 18 15 14 17 20 20 19 18 15 14 14
5 5 3 1 4 4 3 6 6 9 10 10 8 7 6 5 5 5 5 2 2 4 6 7 10 12 13 15 16 16 17 17 17 17 17 18 19 19 18 15 14 19 19 17 15 10 12 12 12
4 2 1 3 5 5 5 7 5 9 11 10 9 8 7 6 5 5 5 3 1 4 6 6 9 10 13 14 15 16 16 16 17 17 17 18 19 20 19 15 15 19 16 14 13 10 11 13 13
2 2 2 4 6 6 6 8 6 10 11 11 10 9 8 8 8 6 5 3 1 3 5 5 7 9 12 13 13 12 12 14 15 16 17 19 19 20 19 15 16 18 12 8 9 11 11 11 13
3 4 2 2 5 7 10 11 8 10 10 11 10 9 9 9 6 6 5 3 2 4 5 5 6 8 9 6 6 6 7 6 10 14 17 19 19 20 19 15 16 16 9 9 10 11 13 10 10
4 3 1 1 3 5 7 10 7 9 9 10 12 12 10 8 6 6 5 3 3 5 5 6 7 7 9 7 8 6 7 6 10 14 16 18 20 20 19 17 15 15 10 10 10 11 10 11 8
2 2 2 3 1 1 5 8 3 4 5 7 8 9 9 10 9 7 5 5 4 4 5 7 7 7 10 12 10 10 5 4 5 6 7 16 20 21 20 19 18 16 10 10 10 10 11 12 10
0 2 2 3 1 4 3 7 5 4 5 8 10 9 10 8 7 5 4 3 3 4 5 6 7 7 10 12 8 9 9 9 9 7 8 17 20 20 20 19 19 16 13 10 11 9 10 11 11
2 0 2 3 1 3 1 2 8 1 7 12 11 10 9 8 7 6 3 1 2 4 5 6 6 6 9 11 8 8 8 7 9 9 9 9 15 18 20 20 19 16 14 12 11 12 10 9 10
1 4 5 5 4 3 3 4 8 6 8 7 8 10 10 8 7 5 3 3 4 4 5 6 7 7 8 9 8 9 10 11 13 13 11 10 9 13 17 20 18 18 16 13 13 11 11 10 11
4 4 6 6 4 5 2 4 10 6 7 6 7 10 9 8 7 4 2 3 4 5 6 7 8 9 9 9 9 9 10 9 11 13 13 13 12 12 12 19 17 17 18 18 16 12 12 11 11
3 3 4 3 5 7 2 7 8 1 2 2 4 7 8 8 6 5 3 1 3 5 6 8 8 9 9 9 9 8 8 7 8 11 12 12 12 12 18 21 22 22 21 19 15 12 13 11 10
3 4 2 4 2 5 7 9 9 3 2 2 5 7 9 8 7 6 4 1 2 5 6 7 8 9 9 9 10 8 8 9 11 10 11 10 12 17 21 23 22 22 21 18 14 11 12 11 11
3 7 5 3 2 6 8 7 6 8 9 9 8 9 9 8 7 6 3 1 2 4 5 7 8 8 9 9 9 11 9 10 12 11 12 12 15 19 19 19 20 20 18 15 13 11 11 11 11
4 4 4 4 3 3 6 9 7 8 7 11 13 11 10 9 8 6 3 1 3 4 5 6 7 8 8 8 8 9 10 11 12 10 11 13 14 18 17 18 20 20 18 14 10 10 10 10 10
5 6 7 3 4 4 4 9 4 5 5 7 9 10 9 9 8 6 4 1 3 5 6 7 7 8 8 8 8 9 10 9 11 12 12 15 14 17 18 18 18 19 17 14 11 11 11 10 9
Wind_Direction
32 62 64 55 61 62 65 32 70 85 76 53 49 86 97 77 83 124 187 14 5 0 357 360 12 14 16 17 17 16 16 16 15 15 14 13 11 10 8 7 5 3 1 1 359 357 355 354 352
49 59 49 55 76 77 46 24 55 66 130 141 70 74 74 76 81 86 30 10 7 5 3 2 14 15 16 16 16 16 15 15 14 14 13 12 10 8 7 5 3 2 360 359 357 355 353 352 350
67 55 61 61 71 93 100 54 93 87 109 121 80 55 65 43 48 60 30 11 11 14 11 6 15 15 15 16 16 15 14 14 14 13 13 12 10 8 6 4 1 360 358 357 355 353 351 350 348
67 55 60 63 71 37 69 112 133 126 79 58 83 56 48 5 45 73 43 22 19 21 17 12 16 15 15 15 15 14 14 13 13 12 12 10 8 6 5 3 360 358 356 355 353 351 349 347 346
61 73 69 64 63 48 25 16 73 84 63 52 84 89 69 14 48 70 53 34 30 26 23 18 18 16 14 14 15 13 13 12 12 11 10 9 6 4 3 1 358 356 355 353 351 349 347 346 345
61 68 78 94 110 127 64 30 82 83 95 94 94 99 93 35 63 68 54 42 40 33 28 24 20 17 14 12 14 12 12 12 11 10 9 8 5 3 1 359 356 355 353 352 350 348 346 345 344
84 76 94 122 136 143 133 72 71 95 93 96 115 108 143 144 134 97 56 46 46 40 33 25 21 17 13 11 12 11 12 11 11 10 8 7 4 1 359 357 354 354 352 350 348 346 345 344 343
100 94 94 121 136 139 135 96 79 80 105 45 96 136 170 183 157 118 47 34 44 43 36 26 22 18 11 9 12 11 11 11 11 9 7 5 3 360 357 354 352 352 351 349 346 345 344 343 341
75 73 102 148 155 150 141 110 85 61 87 45 56 133 152 145 146 167 326 26 31 31 30 25 19 18 12 11 13 10 10 9 10 7 5 3 359 355 355 350 350 351 349 348 344 343 343 343 339
53 95 126 106 146 139 123 124 145 110 84 71 59 83 112 127 154 135 47 34 25 10 9 22 17 17 15 12 8 9 4 1 3 3 2 359 356 353 353 348 349 349 347 346 343 342 342 340 335
59 100 110 68 99 108 108 117 134 129 146 178 172 167 157 152 145 87 61 49 22 348 351 12 18 17 16 10 6 8 0 358 358 360 359 356 353 350 347 344 344 344 345 343 340 339 337 333 330
82 61 85 102 87 91 110 115 113 155 192 168 164 159 161 155 123 92 72 51 8 350 347 1 19 17 14 10 2 5 359 355 355 354 357 355 351 346 343 338 336 341 341 337 335 332 329 328 325
73 87 58 78 81 86 91 96 117 111 117 123 139 148 156 144 124 103 91 60 7 349 344 351 18 15 8 6 1 358 354 351 349 350 353 354 349 342 339 333 332 335 337 334 331 329 325 326 323
89 89 91 73 79 83 108 109 113 164 148 142 156 166 164 159 154 134 104 39 355 349 346 344 13 13 6 1 353 351 347 345 346 348 348 350 346 340 337 331 330 335 335 332 328 322 322 323 320
99 85 74 82 92 116 116 151 203 176 160 168 180 181 175 170 161 156 152 167 360 350 338 343 7 8 2 357 350 344 339 338 339 340 343 345 343 339 336 330 330 333 332 330 329 321 325 322 320
81 82 80 177 123 140 145 259 195 162 165 186 197 199 191 178 169 166 169 172 28 349 335 339 358 358 357 353 344 338 333 332 332 334 336 339 339 336 334 327 326 329 329 329 327 326 329 322 320
55 90 217 209 182 158 191 248 192 171 178 196 204 207 203 193 187 185 182 171 31 337 318 322 339 351 351 346 340 333 328 326 328 332 332 335 336 333 329 321 323 327 325 325 326 330 325 321 321
187 200 238 242 196 172 217 249 212 185 190 203 208 211 210 210 210 195 187 177 334 317 307 310 333 346 346 341 335 328 323 322 326 330 331 332 331 330 326 318 324 324 321 320 321 322 321 317 317
138 161 240 268 167 187 229 251 232 194 198 208 213 215 217 220 209 187 184 191 296 298 314 324 340 341 345 340 335 325 321 313 316 329 330 326 325 326 322 320 322 319 316 316 316 320 319 319 322
117 125 249 270 168 211 263 264 242 194 204 207 208 212 212 206 198 205 209 216 272 295 318 334 343 334 337 331 319 307 307 303 316 323 321 324 326 325 326 322 318 314 312 311 313 317 316 319 329
90 147 252 252 63 42 325 302 219 213 203 209 210 208 200 200 204 213 221 235 264 305 328 338 330 329 332 332 326 327 307 296 317 320 314 325 325 323 320 316 315 312 308 307 307 305 313 315 313
157 235 189 152 40 314 1 307 281 222 232 226 217 204 198 198 191 198 213 241 284 324 335 329 327 327 332 336 333 337 342 335 326 321 318 324 325 323 322 320 315 311 309 302 301 311 303 303 306
228 20 143 147 151 324 331 234 289 154 256 242 222 205 196 190 184 189 190 209 6 355 337 331 333 330 333 335 330 327 320 310 316 320 318 319 324 323 321 321 315 311 308 301 296 297 292 293 291
148 80 71 70 74 315 229 197 283 224 226 248 216 197 190 182 177 165 131 64 11 349 339 342 345 336 330 329 325 321 315 317 326 331 328 328 323 320 316 317 311 307 304 299 297 291 287 287 284
59 62 10 353 354 277 167 226 252 254 218 228 214 194 180 171 166 163 116 31 347 341 351 352 347 334 327 326 321 315 312 316 323 327 328 328 326 324 317 315 310 306 300 298 295 291 288 283 279
40 92 120 281 278 296 289 248 260 258 232 244 196 167 159 163 163 154 125 77 329 349 356 349 338 328 324 324 320 310 315 326 325 322 322 320 319 317 314 316 312 307 302 299 295 291 286 283 279
94 92 127 147 296 288 281 282 302 157 237 180 158 156 171 172 163 150 135 121 358 358 349 338 329 324 321 320 320 321 330 329 325 321 318 316 317 320 321 317 314 312 307 301 298 292 285 284 282
71 140 98 112 311 297 294 286 268 258 242 220 204 193 186 170 158 152 155 161 4 353 335 330 323 317 313 317 325 340 330 326 325 323 321 321 321 323 322 322 323 323 320 310 302 298 291 287 285
130 116 112 116 166 218 294 280 228 234 230 220 212 193 182 173 167 165 171 133 7 344 332 324 319 316 314 318 323 327 326 326 326 324 322 323 324 327 328 329 331 333 336 333 321 312 305 301 300
179 181 156 173 227 203 238 272 258 222 249 223 202 178 171 163 158 160 160 68 354 330 322 318 315 314 313 318 325 327 326 325 326 325 324 328 329 331 333 335 339 344 348 350 352 347 345 339 337
Height
1534 1535 1536 1538 1547 1573 1598 1603 1602 1606 1610 1613 1612 1612 1615 1620 1623 1632 1630 1625 1623 1620 1616 1612 1609 1605 1601 1597 1593 1589 1586 1582 1579 1576 1573 1570 1567 1565 1562 1560 1557 1555 1553 1551 1549 1548 1546 1544 1542
1535 1536 1539 1541 1563 1591 1604 1605 1606 1608 1610 1612 1613 1615 1616 1621 1625 1627 1626 1624 1622 1619 1616 1612 1608 1604 1600 1596 1593 1589 1585 1581 1577 1574 1571 1568 1565 1562 1559 1557 1554 1552 1549 1547 1546 1544 1542 1541 1539
1537 1538 1542 1557 1586 1601 1606 1608 1609 1610 1612 1612 1614 1617 1619 1624 1626 1626 1626 1624 1622 1619 1615 1612 1608 1604 1600 1595 1591 1587 1583 1579 1575 1572 1569 1565 1562 1559 1555 1553 1550 1548 1545 1543 1541 1539 1538 1536 1535
1539 1541 1553 1576 1601 1608 1608 1609 1609 1610 1612 1613 1615 1619 1623 1626 1626 1627 1626 1624 1622 1618 1615 1611 1607 1602 1598 1594 1589 1585 1581 1577 1574 1570 1567 1563 1560 1557 1553 1550 1547 1544 1541 1539 1537 1535 1533 1531 1530
1540 1545 1570 1596 1607 1610 1609 1609 1609 1610 1613 1615 1616 1622 1626 1627 1626 1626 1625 1623 1620 1617 1613 1609 1605 1600 1596 1592 1588 1584 1579 1576 1572 1568 1564 1561 1557 1554 1550 1547 1544 1541 1538 1535 1532 1530 1528 1525 1524
1542 1552 1583 1606 1610 1611 1611 1610 1610 1612 1615 1617 1619 1623 1627 1627 1627 1626 1624 1622 1619 1615 1612 1608 1603 1599 1595 1590 1586 1582 1577 1574 1570 1567 1563 1559 1556 1552 1548 1544 1541 1538 1535 1532 1529 1526 1523 1520 1518
1547 1566 1592 1604 1609 1610 1611 1611 1612 1613 1616 1619 1620 1623 1626 1626 1626 1625 1623 1621 1618 1614 1610 1606 1601 1596 1592 1588 1584 1580 1576 1572 1569 1565 1561 1558 1554 1551 1546 1542 1538 1534 1531 1528 1525 1522 1519 1516 1513
1552 1568 1592 1600 1605 1609 1610 1611 1614 1615 1617 1619 1620 1621 1624 1625 1625 1624 1622 1620 1616 1612 1608 1603 1599 1595 1590 1586 1582 1578 1574 1569 1566 1562 1558 1555 1552 1548 1544 1540 1536 1532 1527 1524 1520 1517 1513 1511 1508
1556 1574 1593 1597 1600 1606 1608 1611 1614 1615 1616 1617 1618 1620 1622 1624 1624 1623 1621 1618 1614 1611 1606 1601 1597 1592 1588 1584 1580 1576 1572 1568 1564 1560 1556 1552 1548 1544 1541 1537 1533 1529 1524 1520 1516 1512 1508 1505 1503
1561 1585 1593 1595 1596 1601 1606 1609 1612 1615 1616 1618 1619 1620 1621 1622 1622 1621 1619 1616 1612 1608 1603 1598 1594 1590 1587 1583 1579 1575 1571 1567 1563 1558 1555 1550 1546 1542 1538 1534 1530 1525 1521 1517 1512 1508 1503 1499 1496
1574 1589 1594 1596 1598 1601 1605 1609 1612 1613 1616 1616 1616 1618 1620 1621 1621 1619 1617 1615 1611 1606 1602 1598 1594 1590 1587 1583 1579 1575 1570 1566 1561 1556 1552 1547 1543 1539 1535 1530 1525 1520 1516 1512 1507 1503 1499 1495 1491
1582 1593 1595 1599 1600 1603 1606 1609 1611 1612 1613 1614 1616 1618 1619 1620 1619 1618 1616 1614 1610 1606 1602 1598 1594 1590 1586 1582 1578 1573 1568 1563 1559 1553 1548 1543 1538 1534 1530 1525 1521 1516 1511 1507 1502 1498 1494 1490 1487
1588 1596 1598 1601 1602 1605 1607 1609 1610 1612 1613 1614 1616 1617 1618 1618 1618 1617 1615 1613 1609 1605 1601 1597 1593 1589 1585 1581 1577 1572 1567 1562 1557 1551 1546 1540 1535 1530 1526 1521 1516 1512 1507 1502 1497 1492 1488 1484 1481
1593 1597 1601 1603 1604 1606 1608 1610 1610 1612 1613 1614 1615 1617 1617 1617 1616 1615 1614 1611 1608 1604 1600 1596 1592 1588 1584 1580 1575 1570 1565 1560 1554 1549 1543 1538 1532 1527 1522 1517 1512 1507 1502 1497 1492 1488 1482 1478 1474
1596 1600 1604 1605 1605 1607 1609 1611 1609 1609 1611 1613 1614 1615 1615 1615 1615 1614 1612 1610 1606 1602 1598 1595 1591 1587 1583 1578 1573 1568 1563 1557 1551 1545 1539 1534 1529 1523 1518 1513 1508 1502 1497 1493 1488 1483 1478 1473 1468
1597 1602 1604 1606 1606 1607 1611 1607 1606 1607 1609 1610 1612 1613 1613 1613 1613 1612 1610 1608 1605 1601 1597 1593 1589 1585 1581 1576 1571 1566 1560 1554 1548 1542 1536 1530 1525 1519 1514 1509 1504 1498 1493 1488 1483 1477 1472 1467 1462
1599 1601 1601 1605 1605 1606 1609 1605 1604 1605 1606 1608 1609 1610 1610 1611 1611 1610 1608 1606 1603 1599 1595 1591 1587 1583 1579 1574 1568 1563 1557 1551 1545 1539 1533 1527 1521 1516 1510 1505 1499 1494 1488 1484 1479 1473 1468 1462 1456
1596 1598 1599 1601 1602 1605 1606 1603 1601 1602 1604 1604 1606 1607 1607 1608 1609 1608 1606 1604 1601 1597 1593 1589 1585 1581 1576 1570 1565 1559 1554 1548 1542 1536 1530 1524 1518 1512 1506 1500 1495 1489 1483 1478 1474 1468 1464 1459 1452
1591 1595 1597 1598 1599 1603 1603 1599 1598 1599 1600 1601 1602 1603 1604 1605 1606 1605 1604 1602 1598 1595 1591 1587 1583 1578 1572 1566 1559 1553 1547 1542 1537 1531 1526 1520 1514 1507 1501 1495 1490 1484 1479 1474 1469 1464 1458 1454 1449
1593 1595 1597 1599 1599 1600 1599 1596 1593 1594 1594 1595 1596 1598 1599 1601 1602 1602 1601 1599 1596 1593 1589 1585 1580 1575 1569 1563 1557 1550 1544 1538 1533 1527 1522 1516 1510 1503 1497 1491 1485 1480 1474 1469 1465 1460 1454 1450 1447
1593 1593 1594 1596 1598 1599 1600 1592 1592 1591 1592 1593 1593 1594 1595 1597 1598 1599 1599 1597 1594 1590 1587 1582 1578 1572 1567 1560 1554 1547 1540 1534 1527 1520 1515 1510 1505 1499 1493 1486 1480 1475 1470 1465 1460 1456 1451 1446 1443
1593 1591 1592 1596 1601 1604 1602 1601 1585 1591 1591 1589 1588 1589 1591 1594 1596 1597 1596 1594 1591 1588 1584 1580 1575 1570 1564 1558 1551 1544 1536 1529 1523 1517 1511 1506 1501 1494 1488 1482 1476 1470 1465 1460 1456 1452 1448 1443 1438
1592 1591 1593 1596 1599 1604 1605 1606 1589 1592 1590 1584 1582 1584 1587 1591 1593 1594 1593 1591 1588 1585 1582 1578 1573 1568 1562 1555 1549 1542 1535 1528 1521 1514 1508 1501 1496 1490 1484 1478 1472 1466 1461 1455 1450 1446 1442 1439 1435
1592 1594 1597 1602 1605 1603 1598 1602 1590 1590 1582 1578 1577 1580 1584 1588 1590 1591 1590 1588 1586 1583 1579 1575 1571 1565 1559 1553 1546 1540 1532 1525 1518 1511 1504 1497 1491 1485 1480 1474 1468 1462 1456 1450 1445 1440 1436 1433 1429
1594 1598 1603 1600 1603 1599 1600 1598 1586 1575 1576 1575 1575 1577 1581 1585 1587 1588 1587 1585 1583 1580 1577 1573 1567 1562 1556 1550 1543 1537 1530 1523 1516 1509 1502 1495 1488 1482 1475 1469 1463 1456 1450 1444 1439 1434 1430 1426 1423
1596 1596 1606 1609 1611 1606 1600 1597 1578 1575 1573 1573 1574 1576 1579 1582 1584 1585 1584 1582 1580 1578 1574 1569 1564 1559 1553 1547 1541 1535 1528 1522 1515 1509 1503 1495 1488 1481 1473 1467 1459 1451 1444 1437 1432 1427 1423 1420 1417
1597 1605 1603 1612 1613 1614 1602 1590 1575 1574 1573 1573 1573 1574 1577 1580 1581 1582 1581 1580 1578 1575 1571 1566 1562 1557 1551 1545 1539 1533 1526 1520 1514 1508 1501 1495 1488 1480 1472 1464 1454 1445 1437 1431 1426 1421 1417 1415 1412
1598 1603 1610 1612 1610 1611 1601 1593 1580 1567 1570 1570 1571 1572 1574 1577 1579 1579 1578 1577 1575 1572 1568 1564 1560 1555 1549 1543 1537 1531 1525 1519 1512 1506 1500 1493 1486 1479 1470 1461 1451 1442 1433 1427 1422 1418 1414 1411 1409
1600 1603 1607 1615 1613 1614 1612 1586 1566 1562 1562 1564 1564 1567 1570 1573 1575 1576 1576 1575 1573 1569 1566 1562 1558 1553 1547 1542 1535 1529 1523 1517 1511 1505 1499 1492 1485 1478 1469 1461 1452 1443 1435 1428 1422 1417 1414 1411 1408
1594 1597 1605 1607 1609 1615 1616 1587 1560 1559 1559 1559 1560 1563 1567 1570 1572 1573 1573 1572 1570 1567 1563 1559 1555 1551 1545 1540 1534 1528 1522 1516 1510 1504 1497 1491 1484 1477 1470 1463 1455 1447 1439 1433 1427 1421 1417 1413 1409